Weather History for KOTM - August, 2014

Change the Weather History Date:

Saturday, August 16, 2014

  Actual Average Record
Temperature  
Mean Temperature 68 °F 73 °F  
Max Temperature 71 °F 84 °F 106 °F (1936)
Min Temperature 65 °F 63 °F 49 °F (2013)
Degree Days  
Heating Degree Days 0 0  
Month to date heating degree days 0 0  
Since 1 June heating degree days 22 23  
Since 1 July heating degree days 13 2  
Cooling Degree Days 3 8  
Month to date cooling degree days 81 145  
Year to date cooling degree days 570 724  
Since 1 June cooling degree days 459 660  
Growing Degree Days 18 (Base 50)    
Moisture  
Dew Point 66 °F    
Average Humidity 92    
Maximum Humidity 100    
Minimum Humidity 84    
Precipitation  
Precipitation 0.52 in 0.17 in 2.22 in (2009)
Month to date precipitation 1.32 2.37  
Year to date precipitation 25.43 24.46  
Sea Level Pressure  
Sea Level Pressure 29.86 in    
Wind  
Wind Speed 8 mph (East)    
Max Wind Speed 16 mph    
Max Gust Speed 21 mph    
Visibility 7 miles    
Events Rain    
T = Trace of Precipitation, MM = Missing Value Source: NWS Daily Summary

Daily Weather History Graph

Daily Weather History Graph

Search for Another Location

Airport or City:

Trip Planner

Search our weather history database for the weather conditions in past years. The results will help you decide how hot, cold, wet, or windy it might be!

Date:

Astronomy

Aug. 16, 2014 Rise Set
Actual Time 6:20 AM CDT 8:06 PM CDT
Civil Twilight 5:50 AM CDT 8:36 PM CDT
Nautical Twilight 5:15 AM CDT 9:12 PM CDT
Astronomical Twilight 4:36 AM CDT 9:50 PM CDT
Moon 11:46 PM CDT (8/16) 1:10 PM CDT (8/16)
Length of Visible Light 14h 45m
Length of Day
13h 46m
Waning Gibbous, 58% of the Moon is Illuminated
Aug 16
Waning Gibbous
Aug 17
Last Quarter
Aug 25
New
Sep 2
First Quarter
Sep 8
Full

Hourly Weather History & Observations

Time (CDT) Temp. Dew Point Humidity Pressure Visibility Wind Dir Wind Speed Gust Speed Precip Events Conditions
12:15 AM 66.9 °F 64.9 °F 93% 29.90 in 8.0 mi East 4.6 mph - 0.00 in   Overcast
12:53 AM 66.9 °F 64.9 °F 93% 29.89 in 10.0 mi ENE 4.6 mph - 0.00 in   Overcast
1:53 AM 66.9 °F 64.9 °F 93% 29.88 in 8.0 mi ESE 5.8 mph - 0.00 in Rain Light Rain
2:53 AM 66.0 °F 64.9 °F 96% 29.86 in 5.0 mi ESE 5.8 mph - 0.01 in   Overcast
3:16 AM 66.9 °F 64.9 °F 93% 29.88 in 8.0 mi SE 4.6 mph - 0.01 in Rain Light Rain
3:42 AM 66.9 °F 64.9 °F 93% 29.88 in 5.0 mi SE 4.6 mph - 0.04 in Rain Rain
3:46 AM 66.2 °F 66.2 °F 100% 29.88 in 4.0 mi SSE 5.8 mph - N/A Rain Rain
3:53 AM 66.9 °F 66.0 °F 97% 29.86 in 3.0 mi SSE 5.8 mph - 0.07 in Rain Rain
4:53 AM 68.0 °F 66.0 °F 93% 29.83 in 5.0 mi SSE 12.7 mph - 0.09 in Rain Rain
5:19 AM 68.0 °F 66.0 °F 93% 29.85 in 4.0 mi SE 12.7 mph - 0.09 in Rain Rain
5:53 AM 68.0 °F 66.0 °F 93% 29.83 in 4.0 mi SE 12.7 mph - 0.23 in Rain Rain
6:53 AM 68.0 °F 66.0 °F 93% 29.84 in 10.0 mi SE 9.2 mph - 0.07 in Rain Light Rain
7:53 AM 68.0 °F 66.0 °F 93% 29.85 in 10.0 mi East 8.1 mph - 0.00 in   Overcast
8:53 AM 68.0 °F 66.0 °F 93% 29.83 in 10.0 mi ESE 13.8 mph - 0.00 in Rain Light Rain
9:44 AM 68.0 °F 66.0 °F 93% 29.85 in 8.0 mi ESE 11.5 mph - 0.02 in Rain Light Rain
9:53 AM 69.1 °F 66.0 °F 90% 29.83 in 7.0 mi East 11.5 mph - 0.03 in Rain Light Rain
10:53 AM 69.1 °F 66.9 °F 93% 29.83 in 10.0 mi ESE 12.7 mph - 0.02 in   Overcast
11:15 AM 69.1 °F 66.9 °F 93% 29.85 in 10.0 mi ESE 12.7 mph - N/A   Overcast
11:24 AM 69.1 °F 66.9 °F 93% 29.85 in 10.0 mi ESE 10.4 mph - N/A   Overcast
11:53 AM 69.1 °F 66.0 °F 90% 29.83 in 10.0 mi ESE 11.5 mph - 0.00 in Rain Light Rain
12:53 PM 69.1 °F 66.9 °F 93% 29.84 in 10.0 mi East 9.2 mph - 0.00 in   Overcast
1:53 PM 70.0 °F 66.9 °F 90% 29.84 in 10.0 mi East 10.4 mph - N/A   Overcast
2:53 PM 70.0 °F 66.9 °F 90% 29.84 in 5.0 mi East 10.4 mph - N/A   Overcast
3:53 PM 71.1 °F 68.0 °F 90% 29.85 in 10.0 mi East 10.4 mph - N/A   Overcast
4:27 PM 71.1 °F 66.9 °F 87% 29.86 in 10.0 mi East 9.2 mph - N/A   Overcast
4:45 PM 71.1 °F 66.9 °F 87% 29.87 in 10.0 mi ENE 9.2 mph - N/A   Overcast
4:53 PM 71.1 °F 66.9 °F 87% 29.85 in 6.0 mi East 8.1 mph - N/A   Overcast
5:01 PM 70.0 °F 68.0 °F 93% 29.87 in 2.5 mi ENE 8.1 mph - 0.00 in Rain Light Rain
5:13 PM 70.0 °F 68.0 °F 93% 29.87 in 3.0 mi ENE 6.9 mph - 0.00 in   Overcast
5:20 PM 70.0 °F 68.0 °F 93% 29.87 in 2.0 mi East 8.1 mph - 0.00 in   Overcast
5:45 PM 69.1 °F 68.0 °F 96% 29.87 in 4.0 mi ENE 8.1 mph - 0.00 in   Overcast
5:53 PM 70.0 °F 68.0 °F 93% 29.86 in 7.0 mi ENE 5.8 mph - 0.00 in   Overcast
6:53 PM 70.0 °F 66.9 °F 90% 29.86 in 7.0 mi East 9.2 mph - N/A   Overcast
7:00 PM 70.0 °F 66.9 °F 90% 29.87 in 7.0 mi ENE 6.9 mph - N/A   Mostly Cloudy
7:09 PM 70.0 °F 66.9 °F 90% 29.87 in 7.0 mi ENE 5.8 mph - N/A   Mostly Cloudy
7:42 PM 69.1 °F 66.9 °F 93% 29.88 in 6.0 mi NNE 4.6 mph - N/A   Mostly Cloudy
7:53 PM 69.1 °F 66.9 °F 93% 29.86 in 6.0 mi NE 4.6 mph - N/A   Mostly Cloudy
8:09 PM 69.1 °F 66.9 °F 93% 29.88 in 6.0 mi NE 5.8 mph - N/A   Overcast
8:28 PM 69.1 °F 66.9 °F 93% 29.88 in 7.0 mi NE 4.6 mph - N/A   Overcast
8:53 PM 68.0 °F 66.9 °F 96% 29.87 in 7.0 mi ENE 5.8 mph - N/A   Overcast
9:02 PM 68.0 °F 66.0 °F 93% 29.88 in 7.0 mi ENE 5.8 mph - N/A   Mostly Cloudy
9:09 PM 68.0 °F 66.0 °F 93% 29.88 in 7.0 mi ENE 5.8 mph - N/A   Scattered Clouds
9:53 PM 66.9 °F 66.0 °F 97% 29.88 in 6.0 mi ENE 4.6 mph - N/A   Scattered Clouds
10:04 PM 68.0 °F 66.0 °F 93% 29.89 in 7.0 mi ENE 4.6 mph - N/A   Mostly Cloudy
10:53 PM 66.9 °F 64.9 °F 93% 29.89 in 7.0 mi Calm Calm - N/A   Scattered Clouds
11:45 PM 66.0 °F 64.9 °F 96% 29.91 in 5.0 mi NE 4.6 mph - N/A   Mostly Cloudy
11:53 PM 66.9 °F 64.9 °F 93% 29.90 in 5.0 mi ENE 4.6 mph - N/A   Overcast